www.pogodaiklimat.ru

Погода и климат >> Архив погоды >> Пакистан >> Рохри


ПОГОДА в Рохри

  • Прогноз погоды в Рохри
  • Монитор погоды в Рохри

АРХИВ ПОГОДЫ в Рохри

Время (UTC), дата Ветер
(напр.,м/с)
 
Видим.   Явления Облачность Т
(С)
Тd
(С)
f
(%)
Тe
(С)
Тes
(С)
Комфортность P
(гПа)
Po
(гПа)
Тmin
(С)
Tmax
(С)
R
(мм)
R24
(мм)
S
(см)
09 14.07 ЮВ 2 4000 м мгла ясно +31.0 +22.3 60 +40 +61 опасность
солнечного
удара
994.9 987.5
12 14.07 Ю 2 4000 м ясно +41.0 +25.2 41 +54 +59 опасность
перегрева
990.0 982.8 +42.1
15 14.07 ЮЗ 1 4000 м мгла ясно +38.0 +24.0 45 +49 +49 опасность
перегрева
990.5 1000.0
18 14.07 ЮЗ 2 4000 м мгла ясно +36.0 +23.2 48 +46 +46 опасность
перегрева
991.5 984.2
21 14.07 ЮЗ 2 4000 м мгла ясно +33.0 +22.1 53 +42 +42 опасность
перегрева
990.5 1000.0
00 15.07 ЮЗ 2 4000 м мгла ясно +31.0 +22.3 60 +40 +40 очень
душно
991.7 984.3
03 15.07 ЮЗ 2 4000 м мгла ясно +31.5 +23.6 63 +43 +48 опасность
перегрева
991.9 984.5
06 15.07 ЮЗ 1 4000 м мгла ясно +36.5 +23.0 46 +46 +69 опасность
перегрева
992.6 985.2
09 15.07 штиль 0 4000 м ясно +41.0 +24.4 39 +52 +78 опасность
перегрева
990.3 1000.0
12 15.07 З 1 4000 м ясно +42.0 +24.8 38 +54 +60 опасность
перегрева
989.0 981.9 +43.1
15 15.07 ЮЗ 1 4000 м мгла ясно +38.0 +24.0 45 +49 +49 опасность
перегрева
990.0 1000.0
18 15.07 ЮВ 1 4000 м мгла ясно +35.0 +23.7 52 +46 +46 опасность
перегрева
991.4 984.1
21 15.07 ЮВ 1 4000 м мгла ясно +32.0 +22.6 58 +42 +42 опасность
перегрева
991.1 1000.0
00 16.07 ЮВ 1 4000 м мгла ясно +29.0 +20.8 61 +36 +36 очень
душно
993.0 985.5
03 16.07 ЮВ 1 4000 м мгла 10/5 1200 м
[Sc As trans]
+30.5 +23.3 65 +41 +42 опасность
перегрева
994.2 986.7
06 16.07 ЮВ 1 4000 м мгла 8/4 1200 м
[Sc As trans]
+33.5 +24.4 59 +46 +54 опасность
перегрева
995.6 988.2
09 16.07 ЮВ 1 4000 м мгла 8/4 300 м
[Sc Ac trans]
+37.0 +26.0 53 +52 +61 опасность
перегрева
994.6 1000.0
12 16.07 ЮВ 1 4000 м мгла 4/0
[Ci fib]
+40.0 +25.6 44 +54 +59 опасность
перегрева
994.2 987.0 +40.5
15 16.07 ЮВ 1 4000 м мгла ясно +38.0 +25.6 49 +52 +52 опасность
перегрева
994.3 1000.0
18 16.07 ЮВ 3 4000 м мгла ясно +36.0 +24.9 53 +49 +49 опасность
перегрева
996.1 988.6
21 16.07 ЮВ 2 4000 м мгла ясно +32.0 +22.6 58 +42 +42 опасность
перегрева
995.3 1000.0
00 17.07 ЮВ 2 4000 м мгла ясно +29.0 +22.4 68 +38 +38 очень
душно
997.1 1000.0
03 17.07 ЮВ 1 4000 м мгла 10/5 1200 м
[Sc As trans]
+30.5 +24.9 72 +44 +45 опасность
перегрева
999.1 991.6
06 17.07 ЮВ 2 4000 м мгла 8/0
[Ac trans]
+34.0 +25.7 62 +49 +59 опасность
перегрева
998.7 991.3
09 17.07 ЮВ 2 4000 м мгла ясно +39.0 +26.0 48 +54 +73 опасность
перегрева
997.4 990.0
12 17.07 ЮВ 1 10 км мгла ясно +40.5 +26.2 45 +56 +62 опасность
перегрева
995.8 988.6 +41.1
15 17.07 штиль 0 4000 м мгла 8/4 1200 м
[Sc As trans]
+39.0 +26.8 50 +55 +55 опасность
перегрева
996.0 1000.0
18 17.07 ЮВ 2 4000 м мгла 4/4 1200 м
[Sc]
+34.0 +24.9 59 +47 +47 опасность
перегрева
998.0 990.5
21 17.07 ЮВ 1 4000 м мгла 8/4 1200 м
[Sc As trans]
+31.0 +23.9 66 +43 +43 опасность
перегрева
996.9 1000.0
00 18.07 ЮВ 1 4000 м мгла 8/4 1200 м
[Sc As trans]
+29.0 +23.2 71 +39 +39 очень
душно
998.7 1000.0
03 18.07 ЮВ 1 4000 м мгла ясно +30.5 +22.5 62 +40 +46 очень
душно
998.9 991.4 0.0
06 18.07 ЮВ 1 4000 м мгла 5/0
[Ac trans]
+35.5 +23.5 50 +46 +62 опасность
перегрева
998.6 991.2
09 18.07 ЮВ 1 4000 м 5/3 1200 м
[Sc Ac As]
+39.5 +23.3 40 +49 +63 опасность
перегрева
996.9 1000.0
12 18.07 ЮВ 1 4000 м ясно +40.0 +24.8 42 +52 +58 опасность
перегрева
994.9 987.7 +41.5
15 18.07 ЮВ 1 4000 м мгла ясно +37.5 +24.2 47 +49 +49 опасность
перегрева
995.4 988.0
18 18.07 ЮВ 1 4000 м мгла 4/0
[]
+35.5 +25.1 55 +49 +49 опасность
перегрева
997.6 990.2
21 18.07 ЮВ 1 4000 м мгла 8/4 1200 м
[Sc Ac trans]
+32.0 +22.6 58 +42 +42 опасность
перегрева
996.7 1000.0
00 19.07 ЮВ 2 4000 м мгла 5/0
[Ac trans]
+29.0 +22.4 68 +38 +38 очень
душно
997.9 990.4
03 19.07 ЮВ 1 4000 м мгла ясно +31.0 +24.6 69 +44 +51 опасность
перегрева
999.1 991.7
06 19.07 ЮВ 1 4000 м мгла ясно +35.0 +25.3 57 +49 +72 опасность
перегрева
999.5 992.1
09 19.07 ЮВ 1 4000 м ясно +39.0 +24.4 44 +51 +73 опасность
перегрева
998.3 1000.0
12 19.07 ЮВ 1 4000 м ясно +40.5 +22.8 37 +50 +56 опасность
перегрева
995.9 988.7 +41.5
15 19.07 ЮВ 1 4000 м мгла ясно +38.0 +24.0 45 +49 +49 опасность
перегрева
996.1 1000.0
18 19.07 ЮВ 3 4000 м мгла ясно +35.0 +22.9 50 +45 +45 опасность
перегрева
997.1 989.7
21 19.07 ЮВ 2 4000 м мгла ясно +32.0 +21.8 55 +41 +41 опасность
перегрева
996.1 1000.0
00 20.07 ЮВ 2 4000 м мгла ясно +29.0 +21.6 64 +37 +37 очень
душно
997.5 990.0
03 20.07 ЮВ 1 4000 м мгла 5/0
[Ac trans Cs]
+32.0 +24.2 63 +44 +48 опасность
перегрева
999.8 992.4
06 20.07 ЮВ 1 10 км мгла ясно +37.5 +23.4 45 +48 +71 опасность
перегрева
999.2 991.9
09 20.07 ЮВ 1 4000 м ясно +40.5 +22.8 37 +50 +72 опасность
перегрева
998.8 1000.0
12 20.07 ЮВ 1 4000 м ясно +41.5 +23.3 36 +51 +57 опасность
перегрева
997.2 990.0 +42.1
15 20.07 ЮВ 1 4000 м мгла ясно +37.0 +26.0 53 +52 +52 опасность
перегрева
998.2 1000.0
18 20.07 штиль 0 4000 м мгла ясно +35.0 +25.3 57 +49 +49 опасность
перегрева
998.2 990.8
21 20.07 ЮВ 1 4000 м мгла ясно +32.0 +23.4 60 +43 +43 опасность
перегрева
997.0 1000.0
00 21.07 ЮВ 1 4000 м мгла ясно +29.0 +23.2 71 +39 +39 очень
душно
998.3 990.8
03 21.07 ЮВ 1 4000 м мгла ясно +34.0 +23.2 53 +44 +51 опасность
перегрева
999.7 992.3

 

Местоположение метеостанции Рохри (Пакистан): широта 27.67 долгота 68.90 высота над уровнем моря 68 м.

В архиве по умолчанию представлена погода в Рохри за последнюю неделю. Архивные данные за месяц целиком и за предыдущие месяцы, начиная с января 2011 года, Вы можете получить, выбрав интересующий диапазон дат из раскрывающегося списка и нажав кнопку "Ввод!".


*Определитесь, кто Вы:
робот инопланетянин человек

Внимание! Время в таблицах - всемирное. Для получения местного времени необходимо прибавить поправку, которая равна 5 ч.

Смотрите также архив погоды в соседних городах и на ближайших метеорологических станциях:

Погода в Суккуре (Пакистан) (14 км)
Погода в Ларкане (Пакистан) (73 км)
Погода в Джейкобабаде (Пакистан) (82 км)
Погода в Мохенджо-Даро (Пакистан) (85 км)
Погода в Пад Идан (Пакистан) (119 км)
Погода в Рахим Яр Хан (Пакистан) (163 км)
Погода в Навабшахе (Пакистан) (166 км)
Погода в Ханпуре (Пакистан) (206 км)
Погода в Джайсалмере (Раджастхан, Индия) (217 км)
Погода в Хуздаре (Пакистан) (224 км)

Пояснения к столбцам:

Ветер - указаны скорость ветра в м/с - средняя за 10 мин, порывы в срок и между сроками (в фигурных скобках) и направление, откуда дует ветер: С - северный, СВ - северо-восточный, В - восточный, ЮВ - юго-восточный, Ю - южный, ЮЗ - юго-западный, З - западный, СЗ - северо-западный.
Видимость - горизонтальная дальность видимости в метрах или километрах. При видимости от 1 до 10 км при отсутствии осадков обычно наблюдается дымка, при ухудшении видимости до 1 км и менее - туман. В сухую погоду видимость может ухудшаться дымом, пылью или мглою.
Явления - указаны атмосферные явления, наблюдавшиеся в срок или в последний час перед сроком; фигурными скобками обозначены явления, наблюдавшиеся между сроками (за 1-3 часа до срока); квадратными скобками обозначены град или гололедные отложения с указанием их диаметра в мм.
Облачность - указаны через наклонную черту общая и нижняя облачность в баллах и высота нижней границы облаков в метрах; квадратными скобками обозначены формы облаков: Ci - перистые, Cs - перисто-слоистые, Cc - перисто-кучевые, Ac - высококучевые, As - высокослоистые, Sc - слоисто-кучевые, Ns - слоисто-дождевые, Cu - кучевые, Cb - кучево-дождевые. Подробнее классификацию облаков см. в Атласе облаков (PDF).
T - Температура воздуха - температура, измеренная на высоте 2 м над землей.
Td - Температура точки росы - температура, при понижении до которой содержащийся в воздухе водяной пар достигнет насыщения.
f - Относительная влажность воздуха - влажноcть воздуха, измеренная на высоте 2 м над землей.
Te - Эффективная температура - температура, которую ощущает одетый по сезону человек в тени. Характеристика душности погоды. При расчете учитывается влияние влажности воздуха и скорости ветра на теплоощущения человека.
Tes - Эффективная температура на солнце - температура, которую ощущает человек, с поправкой на солнечный нагрев. Характеристика знойности погоды. Зависит от высоты солнца над горизонтом, облачности и скорости ветра. Ночью, в пасмурную погоду, а также при ветре 12 м/с и более поправка равна нулю.
P - Атмосферное давление - приведенное к уровню моря атмосферное давление.
Po - Атмосферное давление - измеренное на уровне метеостанции атмосферное давление.
Tmin - Минимальная температура - минимум температуры воздуха на высоте 2 м над землей.
Tmax - Максимальная температура - максимум температуры воздуха на высоте 2 м над землей.
R - Количество осадков - Количество выпавших осадков за период времени, мм. При наведении курсора мыши на число - период времени, за который выпало указанное количество осадков.
R24 - Количество осадков - Количество выпавших осадков за 24 часа, мм.
S - Снежный покров - Высота снежного покрова, см. При наведении курсора мыши на число - состояние снежного покрова и степень покрытия местности в баллах.